When you browse on this site, cookies collect data to enhance your experience and personalize the content and advertising you see.
Visit our Privacy Policy to learn more. By continuing to use the site, you agree to this use of cookies and data.
  • In Slovakia
  • List of Countries
  • For 7 days
  • Water Temperature
  • Satellite Maps
  • Weather Map
  • Weather Widgets
  • user-avatar
    Login

    Hourly Weather Santa Fe

    Today, 25 March, Monday

    Time Temperature Precipitation Wind Pressure Humidity
    00:00 +17°C° 0 mm 3 mps 762 mmHg 50%
    01:00 +17°C° 0 mm 3 mps 762 mmHg 54%
    02:00 +16°C° 0 mm 3 mps 762 mmHg 57%
    03:00 +16°C° 0 mm 3 mps 762 mmHg 60%
    04:00 +14°C° 0 mm 3 mps 762 mmHg 63%
    05:00 +14°C° 0 mm 3 mps 762 mmHg 66%
    06:00 +14°C° 0 mm 3 mps 763 mmHg 63%
    07:00 +16°C° 0 mm 3 mps 763 mmHg 60%
    08:00 +17°C° 0 mm 3 mps 763 mmHg 57%
    09:00 +19°C° 0 mm 3 mps 763 mmHg 48%
    10:00 +22°C° 0 mm 3 mps 763 mmHg 40%
    11:00 +25°C° 0 mm 3 mps 764 mmHg 31%
    12:00 +26°C° 0 mm 3 mps 763 mmHg 28%
    13:00 +27°C° 0 mm 3 mps 763 mmHg 25%
    14:00 +29°C° 0 mm 3 mps 762 mmHg 22%
    15:00 +28°C° 0 mm 3 mps 762 mmHg 23%
    16:00 +28°C° 0 mm 4 mps 761 mmHg 24%
    17:00 +27°C° 0 mm 4 mps 761 mmHg 25%
    18:00 +25°C° 0 mm 3 mps 761 mmHg 28%
    19:00 +22°C° 0 mm 3 mps 762 mmHg 32%
    20:00 +20°C° 0 mm 3 mps 762 mmHg 35%
    21:00 +19°C° 0 mm 3 mps 763 mmHg 38%
    22:00 +19°C° 0 mm 3 mps 763 mmHg 42%
    23:00 +18°C° 0 mm 3 mps 764 mmHg 45%

    Tomorrow, 26 March, Tuesday

    Time Temperature Precipitation Wind Pressure Humidity
    00:00 +18°C° 0.1 mm 3 mps 764 mmHg 50%
    01:00 +18°C° 0.1 mm 2 mps 764 mmHg 56%
    02:00 +17°C° 0.1 mm 2 mps 764 mmHg 61%
    03:00 +16°C° 0 mm 2 mps 764 mmHg 65%
    04:00 +16°C° 0 mm 2 mps 764 mmHg 69%
    05:00 +14°C° 0 mm 3 mps 764 mmHg 73%
    06:00 +16°C° 0 mm 3 mps 765 mmHg 73%
    07:00 +17°C° 0 mm 3 mps 765 mmHg 72%
    08:00 +17°C° 0 mm 3 mps 766 mmHg 72%
    09:00 +20°C° 0 mm 3 mps 766 mmHg 61%
    10:00 +22°C° 0 mm 3 mps 766 mmHg 50%
    11:00 +25°C° 0 mm 3 mps 766 mmHg 39%
    12:00 +26°C° 0 mm 3 mps 766 mmHg 35%
    13:00 +27°C° 0 mm 3 mps 765 mmHg 32%
    14:00 +28°C° 0 mm 3 mps 765 mmHg 28%
    15:00 +28°C° 0 mm 3 mps 764 mmHg 28%
    16:00 +28°C° 0 mm 3 mps 764 mmHg 29%
    17:00 +27°C° 0 mm 3 mps 764 mmHg 29%
    18:00 +25°C° 0 mm 4 mps 764 mmHg 36%
    19:00 +22°C° 0 mm 4 mps 765 mmHg 43%
    20:00 +20°C° 0 mm 4 mps 765 mmHg 50%
    21:00 +19°C° 0 mm 4 mps 766 mmHg 55%
    22:00 +19°C° 0 mm 3 mps 766 mmHg 60%
    23:00 +18°C° 0 mm 3 mps 766 mmHg 65%

    Day after tomorrow, 27 March, Wednesday

    Time Temperature Precipitation Wind Pressure Humidity
    00:00 +17°C° 0 mm 3 mps 766 mmHg 69%
    01:00 +16°C° 0 mm 2 mps 766 mmHg 72%
    02:00 +16°C° 0 mm 2 mps 766 mmHg 76%
    03:00 +16°C° 0 mm 2 mps 766 mmHg 77%
    04:00 +15°C° 0 mm 2 mps 766 mmHg 78%
    05:00 +15°C° 0 mm 2 mps 767 mmHg 79%
    06:00 +16°C° 0 mm 3 mps 767 mmHg 76%
    07:00 +17°C° 0 mm 3 mps 767 mmHg 72%
    08:00 +18°C° 0 mm 3 mps 768 mmHg 68%
    09:00 +21°C° 0 mm 4 mps 768 mmHg 60%
    10:00 +23°C° 0 mm 4 mps 768 mmHg 52%
    11:00 +27°C° 0 mm 4 mps 768 mmHg 44%
    12:00 +28°C° 0 mm 4 mps 767 mmHg 41%
    13:00 +29°C° 0 mm 4 mps 766 mmHg 38%
    14:00 +29°C° 0 mm 4 mps 766 mmHg 35%
    15:00 +29°C° 0 mm 4 mps 765 mmHg 35%
    16:00 +29°C° 0 mm 4 mps 765 mmHg 34%
    17:00 +29°C° 0 mm 3 mps 764 mmHg 34%
    18:00 +27°C° 0 mm 3 mps 765 mmHg 39%
    19:00 +24°C° 0 mm 3 mps 765 mmHg 44%
    20:00 +21°C° 0 mm 3 mps 765 mmHg 49%
    21:00 +21°C° 0 mm 3 mps 766 mmHg 52%
    22:00 +20°C° 0 mm 3 mps 766 mmHg 55%
    23:00 +20°C° 0 mm 3 mps 766 mmHg 58%

    28 March, Thursday

    Time Temperature Precipitation Wind Pressure Humidity
    00:00 +19°C° 0 mm 3 mps 766 mmHg 63%
    01:00 +19°C° 0 mm 3 mps 766 mmHg 68%
    02:00 +19°C° 0 mm 4 mps 766 mmHg 73%
    03:00 +19°C° 0 mm 4 mps 765 mmHg 74%
    04:00 +19°C° 0 mm 4 mps 765 mmHg 74%
    05:00 +19°C° 0 mm 4 mps 765 mmHg 75%
    06:00 +20°C° 0 mm 4 mps 766 mmHg 71%
    07:00 +20°C° 0 mm 4 mps 766 mmHg 67%
    08:00 +21°C° 0 mm 5 mps 766 mmHg 63%
    09:00 +22°C° 0 mm 4 mps 766 mmHg 56%
    10:00 +25°C° 0 mm 4 mps 766 mmHg 48%
    11:00 +27°C° 0 mm 4 mps 766 mmHg 41%
    12:00 +29°C° 0 mm 4 mps 765 mmHg 36%
    13:00 +32°C° 0 mm 4 mps 764 mmHg 31%
    14:00 +33°C° 0 mm 4 mps 763 mmHg 25%
    15:00 +33°C° 0 mm 4 mps 762 mmHg 26%
    16:00 +33°C° 0 mm 4 mps 762 mmHg 27%
    17:00 +32°C° 0 mm 4 mps 762 mmHg 28%
    18:00 +29°C° 0 mm 4 mps 762 mmHg 34%
    19:00 +27°C° 0 mm 3 mps 762 mmHg 40%
    20:00 +25°C° 0 mm 3 mps 762 mmHg 45%
    21:00 +24°C° 0 mm 3 mps 762 mmHg 51%
    22:00 +24°C° 0 mm 3 mps 762 mmHg 56%
    23:00 +22°C° 0 mm 3 mps 762 mmHg 62%

    29 March, Friday

    Time Temperature Precipitation Wind Pressure Humidity
    00:00 +22°C° 0 mm 3 mps 762 mmHg 66%
    01:00 +21°C° 0 mm 3 mps 761 mmHg 69%
    02:00 +21°C° 0 mm 3 mps 761 mmHg 73%
    03:00 +22°C° 0 mm 3 mps 761 mmHg 73%
    04:00 +22°C° 0 mm 3 mps 761 mmHg 72%
    05:00 +23°C° 0 mm 4 mps 760 mmHg 71%
    06:00 +23°C° 0 mm 4 mps 760 mmHg 69%
    07:00 +23°C° 0 mm 4 mps 760 mmHg 66%
    08:00 +25°C° 0 mm 4 mps 761 mmHg 63%
    09:00 +27°C° 0 mm 4 mps 760 mmHg 57%
    10:00 +30°C° 0 mm 5 mps 760 mmHg 51%
    11:00 +33°C° 0 mm 5 mps 760 mmHg 45%
    12:00 +34°C° 0 mm 5 mps 759 mmHg 42%
    13:00 +35°C° 0 mm 4 mps 758 mmHg 40%
    14:00 +36°C° 0 mm 4 mps 757 mmHg 38%
    15:00 +35°C° 0 mm 4 mps 756 mmHg 39%
    16:00 +35°C° 0 mm 3 mps 756 mmHg 41%
    17:00 +34°C° 0 mm 3 mps 756 mmHg 42%
    18:00 +33°C° 0.1 mm 3 mps 756 mmHg 46%
    19:00 +31°C° 0.1 mm 3 mps 756 mmHg 51%
    20:00 +29°C° 0.1 mm 2 mps 756 mmHg 55%
    21:00 +29°C° 0 mm 3 mps 756 mmHg 56%
    22:00 +28°C° 0 mm 3 mps 756 mmHg 56%
    23:00 +28°C° 0 mm 3 mps 756 mmHg 57%

    30 March, Saturday

    Time Temperature Precipitation Wind Pressure Humidity
    00:00 +27°C° 1 mm 2 mps 756 mmHg 63%
    01:00 +27°C° 1 mm 2 mps 756 mmHg 70%
    02:00 +26°C° 1 mm 2 mps 756 mmHg 76%
    03:00 +25°C° 1.8 mm 1 mps 757 mmHg 80%
    04:00 +23°C° 1.8 mm 0 mps 757 mmHg 84%
    05:00 +22°C° 1.8 mm 0 mps 757 mmHg 88%
    06:00 +25°C° 2 mm 1 mps 757 mmHg 88%
    07:00 +25°C° 2 mm 2 mps 758 mmHg 87%
    08:00 +26°C° 2 mm 3 mps 758 mmHg 86%
    09:00 +27°C° 1.4 mm 3 mps 758 mmHg 81%
    10:00 +29°C° 1.4 mm 3 mps 758 mmHg 75%
    11:00 +30°C° 1.4 mm 3 mps 758 mmHg 70%
    12:00 +31°C° 0.5 mm 2 mps 758 mmHg 63%
    13:00 +32°C° 0.5 mm 1 mps 757 mmHg 57%
    14:00 +33°C° 0.5 mm 1 mps 757 mmHg 50%
    15:00 +31°C° 0 mm 0 mps 757 mmHg 50%
    16:00 +31°C° 0 mm 0 mps 756 mmHg 49%
    17:00 +31°C° 0 mm 0 mps 756 mmHg 49%
    18:00 +29°C° 0 mm 0 mps 756 mmHg 54%
    19:00 +27°C° 0 mm 0 mps 756 mmHg 58%
    20:00 +25°C° 0 mm 0 mps 756 mmHg 63%
    21:00 +25°C° 0 mm 0 mps 756 mmHg 65%
    22:00 +26°C° 0 mm 1 mps 757 mmHg 67%
    23:00 +26°C° 0 mm 1 mps 757 mmHg 69%
    Show more